When you browse on this site, cookies collect data to enhance your experience and personalize the content and advertising you see.
Visit our Privacy Policy to learn more. By continuing to use the site, you agree to this use of cookies and data.
  • Em Portugal
  • Lista de países
  • Para 7 dias
  • Temperatura da água
  • Mapas de satélite
  • Mapa do tempo
  • Widgets de tempo
  • user-avatar
    Iniciar Sessão

    Previsão horária em Innsbruck

    Hoje, 23 Maio, Quinta-feira

    Tempo Temperatura Precipitação Vento Pressão Humidade
    00:00 +1°C° 0 mm 1 m/s 596 mmHg 96%
    01:00 0°C° 0 mm 1 m/s 595 mmHg 95%
    02:00 0°C° 0 mm 1 m/s 595 mmHg 94%
    03:00 0°C° 0 mm 1 m/s 595 mmHg 94%
    04:00 -1°C° 0 mm 1 m/s 595 mmHg 93%
    05:00 +1°C° 0 mm 1 m/s 596 mmHg 89%
    06:00 +2°C° 0 mm 1 m/s 596 mmHg 86%
    07:00 +3°C° 0 mm 0 m/s 597 mmHg 83%
    08:00 +5°C° 0 mm 1 m/s 597 mmHg 78%
    09:00 +7°C° 0 mm 1 m/s 598 mmHg 73%
    10:00 +8°C° 0 mm 1 m/s 598 mmHg 68%
    11:00 +9°C° 0 mm 1 m/s 598 mmHg 65%
    12:00 +9°C° 0 mm 2 m/s 598 mmHg 62%
    13:00 +10°C° 0 mm 2 m/s 599 mmHg 59%
    14:00 +10°C° 0 mm 2 m/s 598 mmHg 59%
    15:00 +10°C° 0 mm 2 m/s 598 mmHg 59%
    16:00 +9°C° 0 mm 2 m/s 598 mmHg 59%
    17:00 +8°C° 0 mm 2 m/s 597 mmHg 65%
    18:00 +7°C° 0 mm 2 m/s 596 mmHg 71%
    19:00 +5°C° 0 mm 2 m/s 596 mmHg 78%
    20:00 +5°C° 0 mm 1 m/s 595 mmHg 82%
    21:00 +3°C° 0 mm 1 m/s 595 mmHg 87%
    22:00 +1°C° 0 mm 1 m/s 594 mmHg 92%
    23:00 +1°C° 0 mm 1 m/s 594 mmHg 91%

    Amanhã, 24 Maio, Sexta-feira

    Tempo Temperatura Precipitação Vento Pressão Humidade
    00:00 +1°C° 0 mm 1 m/s 594 mmHg 90%
    01:00 +1°C° 0 mm 1 m/s 594 mmHg 89%
    02:00 +1°C° 0 mm 1 m/s 594 mmHg 88%
    03:00 +1°C° 0 mm 1 m/s 594 mmHg 87%
    04:00 0°C° 0 mm 1 m/s 594 mmHg 86%
    05:00 +3°C° 0 mm 1 m/s 595 mmHg 80%
    06:00 +4°C° 0 mm 0 m/s 595 mmHg 74%
    07:00 +6°C° 0 mm 0 m/s 596 mmHg 68%
    08:00 +7°C° 0 mm 0 m/s 597 mmHg 63%
    09:00 +10°C° 0 mm 1 m/s 597 mmHg 57%
    10:00 +11°C° 0 mm 1 m/s 598 mmHg 52%
    11:00 +12°C° 0 mm 1 m/s 598 mmHg 51%
    12:00 +12°C° 0 mm 1 m/s 598 mmHg 50%
    13:00 +13°C° 0 mm 2 m/s 598 mmHg 49%
    14:00 +13°C° 0 mm 2 m/s 597 mmHg 52%
    15:00 +12°C° 0 mm 2 m/s 597 mmHg 55%
    16:00 +12°C° 0 mm 2 m/s 597 mmHg 58%
    17:00 +10°C° 0.1 mm 2 m/s 596 mmHg 65%
    18:00 +8°C° 0.1 mm 2 m/s 596 mmHg 72%
    19:00 +8°C° 0.1 mm 1 m/s 595 mmHg 79%
    20:00 +7°C° 0.2 mm 1 m/s 595 mmHg 84%
    21:00 +5°C° 0.2 mm 1 m/s 594 mmHg 89%
    22:00 +3°C° 0.2 mm 0 m/s 594 mmHg 94%
    23:00 +3°C° 0.2 mm 0 m/s 594 mmHg 94%

    Depois de amanhã, 25 Maio, Sábado

    Tempo Temperatura Precipitação Vento Pressão Humidade
    00:00 +3°C° 0.2 mm 0 m/s 594 mmHg 94%
    01:00 +2°C° 0.2 mm 0 m/s 594 mmHg 94%
    02:00 +2°C° 0.1 mm 0 m/s 594 mmHg 94%
    03:00 +2°C° 0.1 mm 0 m/s 594 mmHg 94%
    04:00 +2°C° 0.1 mm 0 m/s 593 mmHg 94%
    05:00 +4°C° 0.1 mm 0 m/s 594 mmHg 89%
    06:00 +5°C° 0.1 mm 0 m/s 595 mmHg 83%
    07:00 +7°C° 0.1 mm 0 m/s 596 mmHg 78%
    08:00 +8°C° 0.3 mm 0 m/s 596 mmHg 74%
    09:00 +10°C° 0.3 mm 1 m/s 597 mmHg 71%
    10:00 +11°C° 0.3 mm 1 m/s 597 mmHg 67%
    11:00 +11°C° 1 mm 1 m/s 597 mmHg 70%
    12:00 +10°C° 1 mm 1 m/s 597 mmHg 73%
    13:00 +10°C° 1 mm 1 m/s 596 mmHg 77%
    14:00 +9°C° 1.5 mm 1 m/s 596 mmHg 80%
    15:00 +9°C° 1.5 mm 1 m/s 596 mmHg 83%
    16:00 +9°C° 1.5 mm 1 m/s 595 mmHg 86%
    17:00 +8°C° 1 mm 1 m/s 595 mmHg 89%
    18:00 +6°C° 1 mm 0 m/s 595 mmHg 91%
    19:00 +6°C° 1 mm 0 m/s 595 mmHg 94%
    20:00 +5°C° 0.4 mm 0 m/s 595 mmHg 94%
    21:00 +4°C° 0.4 mm 0 m/s 595 mmHg 95%
    22:00 +3°C° 0.4 mm 0 m/s 595 mmHg 95%
    23:00 +3°C° 0.1 mm 0 m/s 594 mmHg 95%

    26 Maio, Domingo

    Tempo Temperatura Precipitação Vento Pressão Humidade
    00:00 +3°C° 0.1 mm 1 m/s 594 mmHg 94%
    01:00 +3°C° 0.1 mm 1 m/s 594 mmHg 94%
    02:00 +3°C° 0 mm 1 m/s 594 mmHg 94%
    03:00 +3°C° 0 mm 1 m/s 594 mmHg 94%
    04:00 +2°C° 0 mm 1 m/s 593 mmHg 94%
    05:00 +4°C° 0 mm 1 m/s 594 mmHg 93%
    06:00 +5°C° 0 mm 1 m/s 595 mmHg 91%
    07:00 +7°C° 0 mm 1 m/s 596 mmHg 90%
    08:00 +7°C° 0.1 mm 1 m/s 596 mmHg 86%
    09:00 +7°C° 0.1 mm 2 m/s 597 mmHg 83%
    10:00 +8°C° 0.1 mm 2 m/s 597 mmHg 79%
    11:00 +9°C° 0.1 mm 2 m/s 597 mmHg 75%
    12:00 +10°C° 0.1 mm 2 m/s 598 mmHg 71%
    13:00 +12°C° 0.1 mm 2 m/s 598 mmHg 66%
    14:00 +12°C° 0.3 mm 2 m/s 598 mmHg 68%
    15:00 +10°C° 0.3 mm 3 m/s 597 mmHg 69%
    16:00 +10°C° 0.3 mm 3 m/s 597 mmHg 70%
    17:00 +9°C° 0.3 mm 3 m/s 597 mmHg 77%
    18:00 +8°C° 0.3 mm 2 m/s 596 mmHg 85%
    19:00 +6°C° 0.3 mm 2 m/s 596 mmHg 92%
    20:00 +6°C° 0.1 mm 2 m/s 596 mmHg 94%
    21:00 +6°C° 0.1 mm 1 m/s 596 mmHg 96%
    22:00 +5°C° 0.1 mm 1 m/s 595 mmHg 98%
    23:00 +5°C° 0 mm 1 m/s 595 mmHg 98%

    27 Maio, Segunda-feira

    Tempo Temperatura Precipitação Vento Pressão Humidade
    00:00 +4°C° 0 mm 1 m/s 595 mmHg 97%
    01:00 +3°C° 0 mm 0 m/s 595 mmHg 97%
    02:00 +3°C° 0 mm 0 m/s 594 mmHg 96%
    03:00 +2°C° 0 mm 0 m/s 594 mmHg 95%
    04:00 +2°C° 0 mm 0 m/s 594 mmHg 94%
    05:00 +4°C° 0 mm 0 m/s 594 mmHg 90%
    06:00 +5°C° 0 mm 0 m/s 595 mmHg 85%
    07:00 +6°C° 0 mm 0 m/s 595 mmHg 81%
    08:00 +7°C° 0.2 mm 0 m/s 596 mmHg 77%
    09:00 +10°C° 0.2 mm 1 m/s 596 mmHg 73%
    10:00 +11°C° 0.2 mm 1 m/s 596 mmHg 69%
    11:00 +10°C° 0.9 mm 1 m/s 596 mmHg 71%
    12:00 +10°C° 0.9 mm 1 m/s 596 mmHg 74%
    13:00 +9°C° 0.9 mm 2 m/s 595 mmHg 77%
    14:00 +8°C° 1.8 mm 2 m/s 595 mmHg 80%
    15:00 +9°C° 1.8 mm 1 m/s 594 mmHg 84%
    16:00 +8°C° 1.8 mm 1 m/s 594 mmHg 87%
    17:00 +8°C° 1.4 mm 1 m/s 594 mmHg 89%
    18:00 +8°C° 1.4 mm 1 m/s 593 mmHg 91%
    19:00 +7°C° 1.4 mm 1 m/s 593 mmHg 93%
    20:00 +6°C° 0.4 mm 1 m/s 593 mmHg 93%
    21:00 +6°C° 0.4 mm 1 m/s 593 mmHg 94%
    22:00 +4°C° 0.4 mm 0 m/s 593 mmHg 94%
    23:00 +5°C° 0.1 mm 1 m/s 592 mmHg 94%

    28 Maio, Terça-feira

    Tempo Temperatura Precipitação Vento Pressão Humidade
    00:00 +4°C° 0.1 mm 1 m/s 592 mmHg 94%
    01:00 +4°C° 0.1 mm 1 m/s 591 mmHg 94%
    02:00 +3°C° 0 mm 1 m/s 591 mmHg 94%
    03:00 +3°C° 0 mm 1 m/s 590 mmHg 94%
    04:00 +2°C° 0 mm 1 m/s 590 mmHg 94%
    05:00 +4°C° 0 mm 1 m/s 590 mmHg 90%
    06:00 +5°C° 0 mm 1 m/s 591 mmHg 86%
    07:00 +6°C° 0 mm 0 m/s 592 mmHg 82%
    08:00 +9°C° 0 mm 1 m/s 592 mmHg 73%
    09:00 +11°C° 0 mm 1 m/s 593 mmHg 65%
    10:00 +12°C° 0 mm 1 m/s 593 mmHg 57%
    11:00 +12°C° 0.5 mm 1 m/s 593 mmHg 59%
    12:00 +12°C° 0.5 mm 1 m/s 593 mmHg 62%
    13:00 +12°C° 0.5 mm 1 m/s 592 mmHg 64%
    14:00 +11°C° 1.3 mm 1 m/s 592 mmHg 71%
    15:00 +10°C° 1.3 mm 1 m/s 591 mmHg 77%
    16:00 +9°C° 1.3 mm 1 m/s 590 mmHg 84%
    17:00 +9°C° 1.7 mm 1 m/s 590 mmHg 87%
    18:00 +8°C° 1.7 mm 1 m/s 590 mmHg 91%
    19:00 +7°C° 1.7 mm 1 m/s 590 mmHg 94%
    20:00 +6°C° 3.8 mm 1 m/s 590 mmHg 95%
    21:00 +6°C° 3.8 mm 1 m/s 590 mmHg 96%
    22:00 +5°C° 3.8 mm 1 m/s 590 mmHg 97%
    23:00 +5°C° 5.3 mm 1 m/s 590 mmHg 98%
    Mostrar mais